AUA73CP LOWW-LBSF

Flight info

Callsign AUA73CP
Flight time N/A
Altitude 33000
Route ARSIN DCT NALOX DCT BABIT DCT RAVAK DCT NISVA
Aircraft A320/M-SDE3FGHIRWY/LB1

Departure

Time 2026-04-22 17:56
Airport Vienna International Airport (LOWW)

Arrival

Time N/A
Airport Sofia Airport (LBSF)
Time Latitude Longitude Altitude Speed Heading
2026-04-22 17:19 48.11897 16.56767 609 ft 0 kts 206°
2026-04-22 17:44 48.11907 16.56774 622 ft 4 kts 206°
2026-04-22 17:44 48.11929 16.56791 625 ft 2 kts 206°
2026-04-22 17:45 48.11951 16.56802 621 ft 4 kts 171°
2026-04-22 17:45 48.11972 16.56784 625 ft 4 kts 120°
2026-04-22 17:45 48.11975 16.56775 620 ft 0 kts 116°
2026-04-22 17:49 48.11970 16.56791 625 ft 8 kts 116°
2026-04-22 17:49 48.11942 16.56876 620 ft 9 kts 116°
2026-04-22 17:49 48.11907 16.56985 612 ft 17 kts 116°
2026-04-22 17:50 48.11858 16.57138 618 ft 11 kts 107°
2026-04-22 17:50 48.11846 16.57242 618 ft 9 kts 111°
2026-04-22 17:50 48.11818 16.57322 611 ft 9 kts 122°
2026-04-22 17:50 48.11732 16.57376 616 ft 16 kts 166°
2026-04-22 17:51 48.11628 16.57420 616 ft 15 kts 163°
2026-04-22 17:51 48.11534 16.57459 616 ft 13 kts 168°
2026-04-22 17:51 48.11445 16.57422 620 ft 19 kts 207°
2026-04-22 17:51 48.11325 16.57341 615 ft 15 kts 205°
2026-04-22 17:52 48.11245 16.57285 609 ft 12 kts 200°
2026-04-22 17:52 48.11193 16.57322 617 ft 8 kts 120°
2026-04-22 17:52 48.11167 16.57404 625 ft 12 kts 116°
2026-04-22 17:52 48.11131 16.57515 619 ft 11 kts 115°
2026-04-22 17:53 48.11099 16.57611 611 ft 10 kts 121°
2026-04-22 17:53 48.11049 16.57648 622 ft 7 kts 189°
2026-04-22 17:53 48.11010 16.57622 609 ft 0 kts 204°
2026-04-22 17:54 48.10975 16.57598 616 ft 8 kts 204°
2026-04-22 17:54 48.10931 16.57560 616 ft 9 kts 222°
2026-04-22 17:55 48.10931 16.57485 615 ft 13 kts 294°
2026-04-22 17:55 48.11025 16.57197 611 ft 54 kts 296°
2026-04-22 17:55 48.11286 16.56391 618 ft 116 kts 296°
2026-04-22 17:55 48.11717 16.55080 633 ft 161 kts 299°
2026-04-22 17:56 48.12148 16.53535 1237 ft 164 kts 281°
2026-04-22 17:56 48.11897 16.51864 1924 ft 174 kts 238°
2026-04-22 17:56 48.10967 16.50642 2518 ft 180 kts 219°
2026-04-22 17:56 48.09942 16.49559 3121 ft 181 kts 219°
2026-04-22 17:57 48.08907 16.48466 3711 ft 182 kts 219°
2026-04-22 17:57 48.07747 16.47545 4066 ft 202 kts 197°
2026-04-22 17:57 48.06275 16.47412 4287 ft 225 kts 172°
2026-04-22 17:57 48.04631 16.47741 4557 ft 251 kts 172°
2026-04-22 17:58 48.02818 16.48093 4938 ft 275 kts 172°
2026-04-22 17:58 48.00877 16.48464 5605 ft 285 kts 172°
2026-04-22 17:58 47.98889 16.48827 6428 ft 290 kts 172°
2026-04-22 17:58 47.96948 16.49640 7216 ft 292 kts 155°
2026-04-22 17:59 47.95074 16.50852 8050 ft 295 kts 154°
2026-04-22 17:59 47.93828 16.51670 8617 ft 296 kts 154°
2026-04-22 17:59 47.91933 16.52917 9454 ft 299 kts 154°
2026-04-22 17:59 47.90014 16.54175 10253 ft 304 kts 155°
2026-04-22 18:00 47.88002 16.55485 10534 ft 327 kts 155°
2026-04-22 18:00 47.85844 16.56878 10772 ft 348 kts 155°
2026-04-22 18:00 47.83589 16.58322 11344 ft 356 kts 155°
2026-04-22 18:00 47.81296 16.59781 12042 ft 360 kts 155°
2026-04-22 18:01 47.78981 16.61250 12758 ft 364 kts 154°
2026-04-22 18:01 47.76646 16.62736 13457 ft 367 kts 154°
2026-04-22 18:01 47.74284 16.64242 14133 ft 371 kts 154°
2026-04-22 18:01 47.71903 16.65755 14757 ft 374 kts 154°
2026-04-22 18:02 47.69502 16.67279 15375 ft 377 kts 154°
2026-04-22 18:02 47.67077 16.68815 15992 ft 380 kts 154°
2026-04-22 18:02 47.64631 16.70363 16593 ft 384 kts 154°
2026-04-22 18:02 47.62127 16.71946 17199 ft 387 kts 154°
2026-04-22 18:03 47.59679 16.73495 17775 ft 390 kts 154°
2026-04-22 18:03 47.57105 16.74873 18352 ft 397 kts 162°
2026-04-22 18:03 47.54371 16.75601 18867 ft 403 kts 173°
2026-04-22 18:03 47.51599 16.75867 19357 ft 406 kts 174°
2026-04-22 18:04 47.48769 16.76128 19864 ft 409 kts 174°
2026-04-22 18:04 47.45926 16.76396 20359 ft 411 kts 174°
2026-04-22 18:04 47.43063 16.76671 20854 ft 414 kts 174°
2026-04-22 18:04 47.40182 16.76953 21340 ft 416 kts 174°
2026-04-22 18:05 47.37282 16.77234 21810 ft 419 kts 174°